Location: Del Amo
(33.8464°N, 118.2104°W)
Time: 18:53:34
(UTC+00:00)

S-56A Canister/Altair - Pass Details

Date: 18 September 2024
Orbit: 636 x 2487 km, 38.9° (Epoch: 14 October)

Event Time Altitude Azimuth Distance (km) Brightness Sun altitude
Rises 23:32:43 0° 217° (SW) 2,922 11.3 28.1°
Reaches altitude 10° 23:35:10 10° 206° (SSW) 2,009 10.4 27.6°
Maximum altitude 23:39:04 30° 144° (SE) 1,195 8.6 26.9°
Drops below altitude 10° 23:43:31 10° 83° (E) 2,312 9.5 26.0°
Sets 23:46:32 0° 73° (ENE) 3,454 10.3 25.4°
